RH
18 17 17 19 18 35 35 29 28 42 53 58 65 66 63 57 50 47 47 47 51 50 47 44 45 43 41 40 44 41 29 20 12 14 17 15 9 10 12 10 10 19 24
17 17 17 17 19 29 41 39 37 38 46 47 54 59 63 68 66 61 54 50 50 54 56 54 62 54 50 47 42 45 46 34 25 13 16 18 12 9 10 10 10 24 29
16 16 16 16 17 19 42 42 39 39 29 32 41 43 41 45 58 70 67 63 57 55 56 58 60 65 53 53 53 47 45 50 42 30 15 16 17 13 9 10 10 13 12
16 16 16 17 17 18 19 19 22 41 42 38 40 46 40 36 48 57 64 67 67 64 61 61 63 61 57 55 55 58 53 47 52 50 38 21 14 16 15 11 9 9 10
15 15 16 16 17 17 18 19 20 20 25 31 37 42 46 42 43 52 59 67 76 76 72 66 67 70 68 65 62 63 61 58 53 52 54 47 32 20 14 14 13 11 9
14 14 14 15 16 17 18 20 20 20 20 19 19 19 19 23 38 44 58 65 67 71 74 77 73 71 74 75 71 69 69 67 62 59 53 52 53 48 38 26 16 12 10
14 14 15 16 17 19 20 20 21 22 24 24 23 21 20 19 19 21 43 56 65 72 75 80 82 77 80 79 82 81 78 73 74 67 64 59 55 54 54 51 46 35 24
15 17 18 19 20 21 22 22 23 24 24 25 25 26 25 23 21 20 20 26 72 75 77 88 87 80 76 86 83 79 85 81 77 74 78 70 63 61 60 59 58 55 48
17 17 16 16 16 15 14 15 15 16 17 20 22 25 26 28 27 24 22 21 32 34 49 78 84 83 75 76 86 84 86 85 81 87 77 82 80 73 68 66 66 66 64
10 9 8 8 8 8 8 8 8 8 9 10 13 16 20 23 26 26 25 25 22 21 22 23 30 46 52 61 57 79 82 86 79 89 93 85 81 77 75 75 74 71 74
8 10 10 11 10 10 10 10 10 11 11 10 10 10 11 14 17 21 23 19 22 26 24 21 20 19 20 33 38 28 64 76 82 84 90 94 88 84 83 83 80 78 75
9 7 6 6 8 10 11 12 12 12 12 12 11 11 11 10 9 12 15 16 14 15 21 25 26 24 22 21 20 20 34 58 60 59 78 84 84 74 70 66 65 72 68
6 8 14 19 20 19 18 16 13 11 12 12 13 14 13 12 12 11 12 13 13 11 11 12 13 16 20 23 24 24 24 24 23 23 25 36 38 35 49 49 53 60 63
16 19 19 19 14 11 8 7 6 6 7 8 8 9 11 14 16 14 13 13 13 11 10 10 9 9 8 8 8 8 8 8 9 10 11 12 13 14 21 28 39 56 64
18 20 18 14 11 8 6 6 7 8 8 10 11 12 12 14 15 18 18 14 14 12 12 11 10 9 9 9 9 9 9 9 10 10 10 10 10 10 10 10 11 13 29
18 14 11 14 13 9 8 8 9 10 12 13 12 11 12 16 20 24 27 19 15 14 12 12 12 12 11 11 12 11 12 12 12 12 12 12 12 13 13 13 12 11 12
5 5 10 20 20 19 19 18 18 15 14 16 18 20 19 23 28 33 36 25 18 16 16 14 14 14 14 13 13 13 12 12 14 16 16 16 17 18 18 19 18 15 13
4 5 11 20 24 26 28 30 30 30 26 24 26 31 38 27 33 38 33 31 24 19 19 17 15 15 15 15 14 16 19 19 19 19 15 12 12 13 19 23 23 23 24
7 6 8 11 12 12 11 14 22 33 39 38 38 41 49 43 57 56 50 45 39 24 21 19 19 16 17 17 20 21 20 19 15 10 15 19 21 23 23 24 25 26 27
6 5 5 5 5 5 6 6 6 10 24 36 38 37 41 48 50 37 25 24 29 34 30 23 26 21 20 24 21 20 18 16 10 13 11 11 13 18 22 25 26 28 28
5 4 5 7 8 8 9 9 8 8 9 20 30 32 32 38 36 27 20 17 20 27 32 31 28 28 24 22 19 19 17 14 10 13 12 10 10 12 17 20 21 22 24
5 10 16 20 25 27 24 15 12 9 8 9 18 26 26 24 19 16 17 16 13 14 20 23 24 20 18 16 18 18 19 13 12 10 10 10 10 10 11 14 17 19 19
11 20 40 46 50 49 48 51 41 15 8 7 8 11 20 21 12 8 10 13 13 9 9 10 11 12 14 16 20 18 16 12 11 11 10 10 9 9 10 9 9 13 17
15 28 34 32 29 26 22 23 47 56 22 8 8 8 8 10 12 8 7 7 10 10 7 7 9 10 10 15 18 17 12 11 12 12 11 10 9 8 8 7 8 9 10
30 23 26 32 33 30 19 20 27 51 60 36 13 10 8 7 7 7 6 5 6 7 8 7 7 8 8 10 13 12 11 12 12 12 12 11 9 9 8 9 8 8 8
24 31 39 26 17 20 28 28 34 46 58 63 55 24 13 11 9 8 5 5 5 5 6 7 7 7 7 8 9 10 11 11 12 12 11 12 11 12 11 10 9 9 8
Wind_Speed
6 4 4 4 4 4 6 6 6 7 7 8 8 8 9 9 8 8 7 7 7 7 7 7 7 6 5 7 7 8 9 9 8 5 2 2 1 1 2 3 4 2 5
4 5 5 5 6 6 8 8 8 9 9 10 11 11 12 12 11 11 10 9 9 8 8 7 7 6 6 5 5 5 6 7 8 7 5 2 2 1 1 3 3 3 4
5 5 6 6 7 7 7 8 10 10 11 12 13 13 13 14 14 13 13 12 12 11 10 9 8 8 7 6 4 4 4 4 5 6 5 4 2 1 1 2 2 4 4
6 7 8 9 9 9 11 12 12 11 13 13 14 15 15 15 16 15 15 15 16 14 13 12 11 10 9 8 7 5 4 3 3 3 4 3 2 1 1 1 2 4 5
8 9 10 11 12 12 13 14 14 14 14 16 17 17 18 17 17 18 18 18 18 16 16 15 14 13 12 11 10 9 7 5 4 4 3 2 2 1 1 1 2 3 4
10 11 13 14 15 15 16 16 16 17 17 17 18 20 20 20 21 21 21 20 20 19 18 18 17 17 16 14 13 12 10 9 7 7 6 5 4 3 3 3 3 4 5
13 15 16 17 18 19 19 19 19 19 20 20 20 21 21 22 23 24 24 25 23 22 21 20 20 18 19 19 16 15 14 12 10 9 9 9 8 7 6 5 4 5 5
17 18 19 20 20 20 20 21 21 22 23 23 23 23 24 24 24 25 26 27 26 26 25 23 22 21 21 20 20 19 17 16 15 14 13 12 12 10 10 9 8 7 7
18 20 21 21 22 23 24 24 25 25 26 26 26 27 27 27 27 27 27 28 29 31 32 31 28 25 25 25 22 21 22 21 20 18 18 17 15 14 12 12 11 12 11
20 22 22 23 25 26 27 28 28 29 29 30 30 30 30 30 30 30 31 31 31 31 31 32 33 34 33 30 29 27 24 23 23 22 21 21 20 18 16 16 16 15 15
21 22 23 24 25 26 28 29 30 31 31 32 32 33 33 33 33 32 32 33 34 34 33 32 32 31 30 33 32 33 32 28 25 25 25 24 24 23 24 22 20 21 20
24 25 25 26 25 26 26 28 30 31 33 34 34 34 35 35 35 35 35 35 35 35 36 35 33 32 31 29 30 29 32 33 33 30 30 30 31 30 28 26 24 24 25
24 23 21 21 23 26 28 29 30 32 32 33 34 35 36 37 36 36 35 36 36 34 33 34 33 33 32 32 31 30 30 31 32 32 32 33 33 32 30 28 27 28 26
17 18 21 23 26 27 29 29 30 32 34 35 37 37 36 37 38 39 37 35 34 33 32 30 30 30 29 29 29 29 29 29 30 31 31 31 32 32 32 32 31 29 28
19 21 22 23 25 26 28 30 31 33 35 36 37 38 38 38 37 36 39 38 34 31 30 29 27 27 27 27 27 27 28 28 29 30 30 31 32 33 33 33 34 32 31
21 22 23 24 23 24 25 28 30 32 33 34 35 36 36 35 37 35 34 36 35 30 28 27 26 25 25 25 25 26 26 27 28 30 30 31 32 34 35 35 36 37 35
21 23 22 20 21 21 22 24 27 30 31 31 30 33 33 30 32 34 30 30 31 29 26 25 25 24 24 24 25 25 25 24 24 25 26 27 29 31 33 34 35 37 38
24 23 20 19 19 20 20 22 25 27 28 29 30 30 31 32 29 27 26 24 25 25 24 22 22 22 23 23 23 22 21 20 22 23 24 26 29 31 33 35 36 37 37
22 20 19 20 20 21 23 23 23 26 28 28 28 27 26 30 25 22 20 20 19 20 22 21 22 21 22 22 19 19 20 19 19 22 23 25 28 30 32 33 35 36 36
20 19 19 19 20 20 23 24 25 27 28 29 28 27 24 25 24 22 21 19 16 18 19 20 21 20 20 19 18 18 18 19 20 19 19 21 23 24 26 27 29 31 33
21 19 18 19 20 21 23 24 25 26 27 28 29 26 24 24 24 23 22 18 14 16 16 16 19 20 19 18 17 17 18 19 20 20 21 20 20 19 18 19 22 26 28
17 17 17 18 19 21 22 23 24 24 24 25 27 25 23 21 23 22 21 19 15 14 14 15 16 19 18 17 17 18 19 19 19 20 20 20 19 18 16 15 16 17 18
16 16 15 17 18 20 22 24 24 24 23 23 24 25 24 23 21 22 21 20 17 15 14 14 15 16 17 17 18 19 20 20 19 19 20 19 18 17 16 15 16 16 16
17 16 16 18 19 22 24 25 25 24 23 22 22 22 23 22 21 20 21 21 21 19 17 15 15 16 17 19 19 20 21 21 19 20 20 19 20 19 18 18 17 18 18
18 20 20 22 24 27 28 27 26 25 24 23 22 22 21 20 20 21 21 19 19 19 19 19 18 17 17 19 20 21 20 20 21 21 19 19 21 22 21 21 21 20 20
24 26 24 24 26 28 29 28 27 26 26 23 23 22 22 21 19 19 19 19 19 19 19 19 19 20 19 19 20 21 22 22 23 23 23 20 20 22 25 26 26 26 24
Wind_Direction
18 9 354 336 329 321 318 321 316 308 305 307 310 313 313 316 317 319 319 318 318 325 327 324 326 335 354 11 21 31 35 34 36 52 101 144 139 214 199 209 219 226 171
358 352 339 330 317 318 313 311 310 302 303 301 299 297 297 299 301 303 303 302 299 298 301 306 310 321 328 347 4 16 28 33 34 34 47 104 142 159 239 249 243 212 245
341 329 328 323 316 311 297 293 295 298 292 293 295 293 290 288 286 286 286 288 287 285 287 289 293 296 304 313 326 341 0 13 26 33 39 52 100 143 205 250 265 273 291
320 317 321 319 314 308 300 294 290 289 291 285 282 283 281 279 278 278 280 277 274 275 277 281 281 281 287 295 302 300 301 312 337 7 18 33 43 72 170 239 274 277 280
310 312 314 310 308 304 298 296 294 290 285 284 283 280 280 277 275 276 275 273 276 277 277 273 272 275 279 284 290 294 288 282 285 290 297 321 359 4 333 297 280 278 266
302 303 306 304 301 298 296 295 294 292 289 286 282 279 277 275 273 270 267 268 268 271 271 272 271 271 273 273 274 277 277 275 272 270 275 275 278 284 297 307 307 301 291
300 303 302 300 299 298 298 296 294 292 290 287 284 281 279 276 272 268 266 265 263 263 266 262 262 265 268 269 272 269 268 265 263 261 258 259 257 260 264 272 286 296 298
302 302 302 301 299 299 296 292 290 289 289 288 286 284 281 278 274 272 269 265 262 259 257 259 256 257 261 262 261 265 267 267 263 260 256 254 257 256 260 262 264 265 278
304 303 301 301 300 298 296 296 294 292 290 288 286 284 283 282 279 275 272 270 263 262 259 255 256 256 257 257 257 257 260 263 265 263 258 254 253 256 262 266 271 278 271
306 304 305 303 300 299 298 296 294 293 292 289 286 283 281 280 279 278 276 272 268 265 263 261 259 258 258 258 258 256 257 261 263 264 263 259 258 259 262 268 273 273 267
308 308 306 302 300 299 297 295 295 294 292 290 289 287 285 282 278 275 274 273 271 269 266 263 262 261 260 256 258 258 255 255 259 259 261 264 264 266 270 273 273 273 273
308 308 305 303 302 300 299 298 297 296 295 294 291 288 286 283 279 276 273 271 270 268 268 266 263 263 263 259 258 259 255 257 258 259 261 263 266 270 272 273 273 267 264
312 308 309 308 307 305 303 303 303 302 300 298 295 292 288 283 280 276 272 269 268 268 267 267 266 263 261 260 259 258 257 258 261 261 259 261 265 268 265 266 267 266 264
311 307 307 308 308 306 306 306 307 306 304 301 299 298 295 293 287 279 274 269 265 266 265 264 264 265 263 261 260 260 259 258 260 262 263 263 264 263 261 260 260 259 260
312 310 311 310 310 313 312 310 308 307 305 304 303 302 301 298 293 289 281 271 266 262 263 262 259 259 261 261 260 260 262 263 263 263 265 265 266 266 265 263 261 258 255
315 315 315 316 314 313 313 313 311 310 309 308 309 304 300 302 298 292 285 278 266 260 256 259 258 255 257 259 260 261 262 263 265 267 267 267 266 266 265 264 263 263 259
314 313 313 314 315 316 316 315 318 316 312 310 313 316 315 319 304 289 286 277 266 258 253 252 255 256 256 258 260 262 264 265 267 267 269 270 270 270 269 267 264 262 261
315 314 312 311 312 311 315 321 324 320 319 320 320 326 328 327 311 296 284 273 264 256 254 252 254 259 261 260 260 262 263 265 267 271 275 277 275 273 271 269 266 264 261
314 313 308 305 308 310 313 317 322 324 328 329 329 328 335 326 315 303 292 279 267 260 255 251 252 253 259 261 257 258 262 263 271 277 281 281 279 276 273 271 268 265 263
319 315 309 308 311 316 319 319 321 321 326 328 329 331 336 327 316 310 302 291 279 267 259 256 257 254 254 257 257 261 261 272 275 278 287 290 290 284 276 272 270 269 266
320 320 323 325 326 328 330 330 328 321 319 322 322 329 330 328 322 318 309 300 292 281 272 266 266 262 255 251 254 258 265 275 276 276 286 289 292 295 287 278 272 270 269
323 324 327 333 336 338 336 334 330 326 322 319 318 321 322 323 321 318 314 304 295 289 282 273 266 266 263 258 252 252 269 273 279 278 282 283 288 290 289 290 289 285 282
325 322 333 334 339 342 341 338 334 330 327 321 319 318 318 319 322 324 316 303 297 290 283 276 269 263 263 262 258 260 268 272 276 278 279 282 283 287 288 294 294 292 290
316 314 321 321 328 330 330 330 332 332 327 324 323 321 319 314 314 316 316 311 305 299 290 276 264 263 260 259 261 265 269 273 275 277 277 279 282 285 287 289 289 291 292
318 313 309 309 314 315 318 321 324 326 324 323 322 325 324 322 319 317 312 306 300 300 299 293 284 277 273 267 267 269 272 275 276 274 272 275 281 284 287 288 290 290 291
320 324 317 309 309 315 320 323 324 323 320 320 321 320 320 321 321 322 320 311 302 296 294 290 286 286 283 277 274 272 272 273 274 275 274 269 267 276 287 290 288 288 288